Location: Caltech
(34.1382°N, 118.1253°W)
Time: 09:09:12
(UTC-07:00)

ITAMSAT 1 - Visible Passes

Search period start: 31 May 2016 00:00
Search period end: 10 June 2016 00:00
Orbit: 784 x 797 km, 98.8° (Epoch: 30 May)

Date Brightness Start Highest point End Pass type
(mag) Time Alt. Az. Time Alt. Az. Time Alt. Az.
31 May 8.2 03:26:09 10° NNE 03:31:16 53° E 03:33:49 28° SSE visible
31 May 9.4 05:07:06 10° NNW 05:10:15 16° WNW 05:13:22 10° WSW visible
01 Jun 9.3 02:57:26 10° NE 03:01:51 27° E 03:04:10 20° SE visible
01 Jun 8.7 04:36:42 10° N 04:41:13 31° WNW 04:44:54 14° SW visible
02 Jun 10.1 02:29:49 10° ENE 02:32:18 13° E 02:34:30 11° ESE visible
02 Jun 7.8 04:06:56 10° N 04:12:05 60° WNW 04:15:15 23° SW visible
03 Jun 7.8 03:37:35 10° NNE 03:42:49 70° ESE 03:45:35 28° S visible
04 Jun 8.9 03:08:40 10° NNE 03:13:26 35° E 03:15:55 23° SE visible
04 Jun 9.0 04:48:33 10° NNW 04:52:40 24° WNW 04:56:39 11° WSW visible
05 Jun 9.8 02:40:28 10° NE 02:43:56 18° E 02:46:15 14° SE visible
05 Jun 8.1 04:18:35 10° N 04:23:34 46° WNW 04:26:59 19° SW visible
06 Jun 7.6 03:49:05 10° NNE 03:54:21 90° WNW 03:57:20 27° SSW visible
07 Jun 8.5 03:20:00 10° NNE 03:25:01 45° E 03:27:39 25° SSE visible
07 Jun 9.3 05:00:31 10° NNW 05:04:05 19° WNW 05:07:39 10° WSW visible
08 Jun 9.5 02:51:27 10° NE 02:55:34 23° E 02:57:59 17° SE visible
08 Jun 8.5 04:30:19 10° N 04:35:02 35° WNW 04:38:43 15° SW visible
09 Jun 10.2 02:24:32 10° ENE 02:25:59 11° E 02:27:27 10° ESE visible
09 Jun 7.7 04:00:39 10° N 04:05:52 70° WNW 04:09:03 24° SSW visible
